WetterOnline ( https://www.wetteronline.de )

Wetter aktuell Sorø

Aktuelles Wetter: Flakkebjerg (34m)

6-stündlich | Neueste Meldungen
Ortszeit Temperatur Wetter
Sa, 15.08. 2:00 14.3° C wolkenlos
Fr, 14.08. 20:00 23.9° C wolkenlos
Fr, 14.08. 14:00 27.7° C wolkenlos
Fr, 14.08. 8:00 14.6° C wolkenlos
Fr, 14.08. 2:00 11.4° C wolkenlos
Do, 13.08. 20:00 22.5° C wolkenlos
Do, 13.08. 14:00 25.7° C wolkenlos
Do, 13.08. 8:00 17.5° C wolkenlos
Ortszeit Temperatur Wetter
Sa, 15.08. 7:00 15.9° C wolkenlos
Sa, 15.08. 6:00 13.3° C wolkenlos
Sa, 15.08. 5:00 13.5° C wolkenlos
Sa, 15.08. 4:00 13.2° C wolkenlos
Sa, 15.08. 3:00 14.0° C wolkenlos
Sa, 15.08. 2:00 14.3° C wolkenlos
Ortszeit Relative Feuchte Sichtweite
Sa, 15.08. 2:00 91% 26 km
Fr, 14.08. 20:00 55% 45 km
Fr, 14.08. 14:00 22% 40 km
Fr, 14.08. 8:00 99% 30 km
Fr, 14.08. 2:00 98% 14 km
Do, 13.08. 20:00 49% 45 km
Do, 13.08. 14:00 33% 40 km
Do, 13.08. 8:00 90% 35 km
Ortszeit Relative Feuchte Sichtweite
Sa, 15.08. 7:00 96% 8 km
Sa, 15.08. 6:00 96% 15 km
Sa, 15.08. 5:00 97% 19 km
Sa, 15.08. 4:00 96% 15 km
Sa, 15.08. 3:00 95% 19 km
Sa, 15.08. 2:00 91% 26 km
Ortszeit Niederschlagsmenge Niederschlagsart
Sa, 15.08. 2:00 0.0 l/m2 in 3 Std. -
Fr, 14.08. 20:00 keine Meldung -
Fr, 14.08. 14:00 0.0 l/m2 in 3 Std. -
Fr, 14.08. 8:00 0.0 l/m2 in 3 Std. -
Fr, 14.08. 2:00 0.0 l/m2 in 3 Std. -
Do, 13.08. 20:00 0.0 l/m2 in 3 Std. -
Do, 13.08. 14:00 0.0 l/m2 in 3 Std. -
Do, 13.08. 8:00 keine Meldung -
Ortszeit Niederschlagsmenge Niederschlagsart
Sa, 15.08. 7:00 0.0 l/m2 in 1 Std. -
Sa, 15.08. 6:00 0.0 l/m2 in 1 Std. -
Sa, 15.08. 5:00 0.0 l/m2 in 1 Std. -
Sa, 15.08. 4:00 0.0 l/m2 in 1 Std. -
Sa, 15.08. 3:00 0.0 l/m2 in 1 Std. -
Sa, 15.08. 2:00 0.0 l/m2 in 1 Std. -
Ortszeit Stärke Spitze Richtung
km/h Bft. km/h Grad Sektor
Sa, 15.08. 2:00 7 2 - 70° O
Fr, 14.08. 20:00 6 1 - 260° W
Fr, 14.08. 14:00 6 1 - 110° O
Fr, 14.08. 8:00 7 2 - 80° O
Fr, 14.08. 2:00 6 1 - 70° O
Do, 13.08. 20:00 11 2 - 90° O
Do, 13.08. 14:00 17 3 - 110° O
Do, 13.08. 8:00 13 3 - 80° O
Ortszeit Stärke Spitze Richtung
km/h Bft. km/h Grad Sektor
Sa, 15.08. 7:00 2 1 - 30° NO
Sa, 15.08. 6:00 4 1 - 40° NO
Sa, 15.08. 5:00 6 1 - 30° NO
Sa, 15.08. 4:00 0 0 - - -
Sa, 15.08. 3:00 0 0 - - -
Sa, 15.08. 2:00 7 2 - 70° O
Ortszeit Untergrenze Bedeckung Gattung
total tief tief mittel hoch
Sa, 15.08. 2:00 - 0/8 0/8 - - -
Fr, 14.08. 20:00 - 0/8 0/8 - - -
Fr, 14.08. 14:00 - 0/8 0/8 - - -
Fr, 14.08. 8:00 - 0/8 0/8 - - -
Fr, 14.08. 2:00 - 0/8 0/8 - - -
Do, 13.08. 20:00 - 0/8 0/8 - - -
Do, 13.08. 14:00 - 0/8 0/8 - - -
Do, 13.08. 8:00 - 0/8 0/8 - - -
Ortszeit Bedeckungsgrad in Achtel und Wolkenuntergrenze
Sa, 15.08. 7:00 keine Wolken
Sa, 15.08. 6:00 keine Wolken
Sa, 15.08. 5:00 keine Wolken
Sa, 15.08. 4:00 keine Wolken
Sa, 15.08. 3:00 keine Wolken
Sa, 15.08. 2:00 keine Wolken
Ortszeit Luftdruck NN (hPa) Tendenz (hPa in 3 Std.)
Sa, 15.08. 2:00 1015 + 0,1
Fr, 14.08. 20:00 1014 + 0,4
Fr, 14.08. 14:00 1014 - 0,7
Fr, 14.08. 8:00 1015 - 0,2
Fr, 14.08. 2:00 1016 - 0,2
Do, 13.08. 20:00 1016 - 0,6
Do, 13.08. 14:00 1018 - 0,4
Do, 13.08. 8:00 1018 - 0,3
Ortszeit Luftdruck NN (hPa) Tendenz (hPa in 3 Std.)
Sa, 15.08. 7:00 1015 + 0,4
Sa, 15.08. 6:00 1015 + 0,1
Sa, 15.08. 5:00 1015 0,0
Sa, 15.08. 4:00 1015 - 0,1
Sa, 15.08. 3:00 1015 - 0,1
Sa, 15.08. 2:00 1015 + 0,1
Ortszeit Schneehöhe (cm)
Sa, 15.08. 2:00 -
Fr, 14.08. 20:00 -
Fr, 14.08. 14:00 -
Fr, 14.08. 8:00 -
Fr, 14.08. 2:00 -
Do, 13.08. 20:00 -
Do, 13.08. 14:00 -
Do, 13.08. 8:00 -
Ortszeit Schneehöhe (cm)
Sa, 15.08. 7:00 -
Sa, 15.08. 6:00 -
Sa, 15.08. 5:00 -
Sa, 15.08. 4:00 -
Sa, 15.08. 3:00 -
Sa, 15.08. 2:00 -
Link zu dieser Seite / Seite empfehlen

Das Wetter in ...